TimeEST,TemperatureF,Dew PointF,Humidity,Sea Level PressureIn,VisibilityMPH,Wind Direction,Wind SpeedMPH,Gust SpeedMPH,PrecipitationIn,Events,Conditions,WindDirDegrees,DateUTC
12:52 AM,46.0,37.9,73,30.03,10.0,NNW,10.4,-,N/A,,Clear,330,2012-11-05 05:52:00
1:52 AM,45.0,37.9,76,30.04,10.0,NW,12.7,-,N/A,,Clear,320,2012-11-05 06:52:00
2:52 AM,43.0,37.0,80,30.04,10.0,NW,9.2,-,N/A,,Clear,320,2012-11-05 07:52:00
3:52 AM,43.0,37.0,80,30.04,10.0,NNW,6.9,-,N/A,,Clear,340,2012-11-05 08:52:00
4:52 AM,42.1,36.0,79,30.04,10.0,NW,6.9,-,N/A,,Clear,320,2012-11-05 09:52:00
5:52 AM,41.0,36.0,82,30.06,10.0,NNW,4.6,-,N/A,,Clear,340,2012-11-05 10:52:00
6:52 AM,39.9,36.0,86,30.08,10.0,NW,9.2,-,N/A,,Partly Cloudy,320,2012-11-05 11:52:00
7:52 AM,43.0,36.0,76,30.09,10.0,NNW,9.2,-,N/A,,Partly Cloudy,330,2012-11-05 12:52:00
8:52 AM,48.0,37.0,66,30.09,10.0,NNW,6.9,-,N/A,,Partly Cloudy,340,2012-11-05 13:52:00
9:52 AM,54.0,37.0,53,30.08,10.0,North,4.6,-,N/A,,Scattered Clouds,10,2012-11-05 14:52:00
10:52 AM,57.9,37.9,47,30.08,10.0,East,5.8,-,N/A,,Scattered Clouds,80,2012-11-05 15:52:00
11:52 AM,61.0,37.0,41,30.06,10.0,Calm,Calm,-,N/A,,Mostly Cloudy,0,2012-11-05 16:52:00
12:52 PM,61.0,36.0,39,30.03,10.0,East,3.5,-,N/A,,Mostly Cloudy,80,2012-11-05 17:52:00
1:52 PM,64.0,35.1,34,30.01,10.0,Variable,3.5,-,N/A,,Mostly Cloudy,0,2012-11-05 18:52:00
2:52 PM,64.0,33.1,31,29.99,10.0,Calm,Calm,-,N/A,,Mostly Cloudy,0,2012-11-05 19:52:00
3:52 PM,62.1,34.0,35,29.98,10.0,SSE,3.5,-,N/A,,Mostly Cloudy,150,2012-11-05 20:52:00
4:52 PM,60.1,36.0,41,29.97,10.0,SSE,3.5,-,N/A,,Mostly Cloudy,160,2012-11-05 21:52:00
5:52 PM,57.9,37.9,47,29.98,10.0,South,4.6,-,N/A,,Overcast,180,2012-11-05 22:52:00
6:52 PM,57.9,37.9,47,29.99,10.0,Calm,Calm,-,N/A,,Overcast,0,2012-11-05 23:52:00
7:52 PM,57.9,39.0,49,29.99,10.0,Calm,Calm,-,N/A,,Overcast,0,2012-11-06 00:52:00
8:52 PM,57.9,39.9,51,29.99,10.0,Calm,Calm,-,N/A,,Overcast,0,2012-11-06 01:52:00
9:52 PM,57.0,39.9,53,29.98,10.0,East,4.6,-,N/A,,Overcast,80,2012-11-06 02:52:00
10:52 PM,57.0,41.0,55,29.96,10.0,ESE,5.8,-,0.00,Rain,Light Rain,110,2012-11-06 03:52:00
11:52 PM,53.6,44.6,72,29.95,9.0,SE,6.9,-,N/A,Rain,Light Rain,130,2012-11-06 04:52:00